GFSSW_925_thetae_057.txt.gz
Theta_e
308 308 308 308 309 309 309 310 310 310 311 313 315 316 316 316 316 320 319 317 314 311 312 314 316 315 316 316 316 313 310 312 314 316 316 314 315 315 315 313 311 310 310 311 313
309 309 309 308 308 309 309 309 310 310 311 313 314 316 317 316 318 320 317 314 313 311 315 315 314 314 312 317 315 313 311 315 313 314 316 315 315 314 314 313 311 310 310 312 313
309 309 309 309 308 308 309 309 310 310 311 313 314 316 317 316 321 317 314 313 312 312 314 315 315 315 315 316 316 315 313 313 314 316 314 316 316 315 315 313 312 311 309 310 310
311 310 310 309 309 309 309 310 310 311 311 312 314 316 317 317 319 316 312 311 311 313 315 315 315 316 316 317 316 314 314 314 316 315 316 316 315 315 314 312 309 307 308 308 307
314 313 312 311 310 309 309 309 309 310 310 312 314 316 317 317 318 313 311 311 312 315 315 314 314 316 317 315 316 315 316 316 315 315 315 315 315 314 311 307 307 308 307 305 306
316 314 313 313 312 311 310 309 309 310 311 313 316 316 320 318 317 315 313 311 313 314 314 314 314 313 315 315 315 315 315 315 315 315 316 315 314 314 309 306 306 307 305 304 305
316 316 314 313 313 313 312 310 309 310 312 315 317 316 317 316 319 317 313 312 313 313 314 314 314 314 315 316 314 315 315 314 313 313 315 313 313 313 308 306 307 306 304 304 304
316 316 315 314 313 313 313 312 311 311 313 316 317 317 315 316 318 318 314 313 312 313 314 314 314 315 315 314 315 315 315 316 316 313 313 313 315 314 307 307 307 305 303 303 303
319 316 314 315 314 314 314 314 312 312 314 316 319 318 316 314 317 318 315 314 313 313 313 313 315 314 314 313 313 315 316 316 317 313 312 312 313 310 307 307 307 305 303 303 302
321 319 317 316 314 313 314 313 314 314 318 317 318 313 313 314 315 317 315 314 313 312 312 313 311 312 312 311 315 316 316 316 317 314 312 311 311 310 307 307 306 305 304 303 301
324 321 319 317 314 315 314 318 318 318 318 312 315 314 312 312 314 315 315 313 313 313 313 313 312 313 313 312 314 316 316 316 315 314 313 312 312 311 308 306 305 304 304 303 302
322 323 321 318 316 316 316 317 318 316 317 317 317 316 312 312 311 313 314 313 314 314 313 314 314 313 313 313 314 315 315 315 314 313 312 312 312 311 309 309 308 307 306 303 300
319 322 323 319 316 317 316 317 318 315 317 318 318 318 313 311 313 313 312 311 313 314 314 315 316 315 315 316 316 315 316 315 316 314 312 312 313 312 311 310 308 307 307 304 301
321 318 322 319 316 318 317 317 318 318 315 316 317 319 311 311 313 313 312 312 313 315 315 315 314 315 315 315 315 316 314 315 316 316 316 312 318 314 312 311 309 309 306 303 300
318 320 321 320 318 318 318 318 316 318 325 316 317 315 312 316 313 311 310 311 313 313 315 316 314 315 316 315 314 315 314 314 314 314 314 314 314 314 314 315 311 309 304 301 300
313 317 317 318 318 318 318 317 318 322 323 319 315 316 315 316 311 309 310 309 311 313 313 313 312 312 314 311 313 311 313 313 312 314 317 314 315 317 316 316 315 310 304 301 300
306 308 314 317 318 318 317 318 319 321 319 319 318 316 316 317 312 311 311 311 314 316 315 314 312 313 311 313 313 314 315 319 319 317 319 314 316 318 315 313 312 309 305 301 300
304 306 309 315 318 318 318 316 318 318 320 317 318 317 318 317 314 311 311 312 310 312 314 316 317 313 311 312 314 313 314 318 319 321 319 312 316 317 312 308 307 307 305 301 299
303 308 312 312 317 318 319 317 319 319 317 318 318 319 319 318 315 313 311 312 312 311 316 316 316 312 311 313 314 312 315 315 320 303 311 317 315 313 309 307 307 305 303 301 299
304 310 312 312 312 317 321 320 315 317 318 318 322 318 320 319 318 314 313 312 314 312 312 317 322 311 310 312 312 313 312 316 315 317 319 318 317 320 313 310 306 304 303 301 298
305 310 311 312 314 316 321 319 318 316 316 321 322 320 318 320 318 315 316 315 313 312 312 314 320 313 310 312 315 314 315 315 316 315 318 317 320 313 315 311 308 304 303 301 299
306 310 312 313 316 314 316 315 316 316 316 320 320 321 319 319 319 315 316 316 313 313 314 314 318 311 313 310 309 313 315 314 320 318 314 316 322 308 309 310 306 305 303 302 299
307 307 311 313 314 315 314 316 315 318 317 319 320 320 319 321 324 320 316 314 314 313 314 316 318 317 315 313 310 312 313 316 316 312 317 322 322 306 307 309 305 303 302 301 299
306 307 307 311 312 312 313 314 316 316 317 317 319 319 319 320 320 323 319 316 311 314 315 316 317 318 324 320 314 312 312 312 315 319 319 321 321 315 308 309 306 303 301 301 299
304 304 308 311 311 313 312 314 316 316 317 316 319 319 321 322 321 321 321 316 313 311 315 318 320 318 318 317 315 311 312 313 315 316 319 319 319 318 315 307 306 304 301 300 299
303 304 302 307 310 310 313 314 314 315 316 318 318 318 318 321 320 320 319 320 319 313 313 315 320 316 320 316 316 319 318 312 312 314 316 316 317 313 312 311 306 304 302 302 301
301 301 304 304 306 311 312 313 313 313 313 314 316 317 318 318 317 315 314 317 317 318 316 314 314 316 322 314 316 319 318 318 319 315 313 315 315 311 312 310 306 304 304 303 302

GFSSW_925_thetae_060.txt.gz
Theta_e
308 308 308 308 308 309 309 309 310 310 311 312 313 314 315 316 316 319 318 316 314 311 311 314 315 315 315 314 314 308 308 310 313 313 315 313 314 314 310 311 309 308 310 310 316
311 309 308 308 308 308 308 309 309 310 310 312 313 314 316 316 318 319 317 314 313 311 314 314 313 313 311 315 313 311 309 313 312 313 314 313 313 313 313 311 310 310 310 311 312
312 311 309 309 308 308 308 309 309 309 310 311 312 314 315 316 319 316 313 312 312 313 314 314 314 314 314 314 314 311 310 311 313 314 313 314 314 312 310 313 309 309 309 309 310
313 312 310 309 309 309 308 308 309 309 310 310 312 314 316 317 318 316 312 311 311 312 315 315 313 315 314 316 315 312 313 312 314 314 315 314 314 314 312 312 310 307 307 307 306
313 313 312 311 310 309 309 308 308 309 310 311 313 314 316 313 317 314 311 310 312 315 314 313 313 315 315 314 315 314 314 314 314 314 314 314 314 313 312 307 306 306 307 305 305
313 314 313 313 311 311 310 309 308 308 310 311 314 315 318 313 317 315 312 311 312 314 313 313 313 313 314 314 313 314 314 314 313 314 314 314 314 313 310 305 306 306 305 303 304
311 311 313 313 313 312 311 309 308 309 310 313 315 316 316 311 317 317 313 312 313 313 313 314 314 313 313 315 313 314 314 312 312 313 314 312 313 312 308 305 306 305 303 303 303
318 317 314 315 313 313 313 311 310 310 311 314 316 317 312 315 318 317 314 313 312 313 314 314 314 313 314 313 313 314 313 315 314 311 313 312 314 313 306 305 306 304 302 302 302
320 319 318 316 315 313 313 312 312 311 312 315 318 317 312 313 317 318 315 313 313 313 313 314 314 312 311 311 312 312 314 314 314 311 311 311 314 312 305 305 306 303 302 302 301
321 320 321 318 316 313 313 312 313 313 317 316 317 313 311 313 314 317 314 313 312 311 311 312 309 311 310 311 314 314 315 314 315 313 311 311 311 310 306 305 306 304 302 302 302
319 321 320 320 317 314 314 316 316 316 317 309 312 307 311 312 315 315 314 313 312 311 312 312 312 313 313 310 312 313 314 315 314 313 312 311 311 311 307 305 304 303 303 303 302
319 322 321 321 318 316 316 315 316 315 314 315 316 315 311 312 311 313 313 313 312 313 311 312 312 312 312 312 312 313 314 313 312 312 311 311 311 309 308 307 307 306 305 304 300
319 319 322 322 318 316 316 315 317 315 315 314 316 316 314 310 312 312 311 311 313 313 313 314 315 313 313 314 314 313 313 313 315 313 311 311 312 311 310 308 307 308 307 305 303
320 321 318 320 316 317 317 319 318 316 314 314 316 316 310 311 314 312 312 311 312 314 313 313 313 314 314 314 314 316 312 314 315 315 316 311 317 313 311 310 308 309 307 305 302
317 318 320 319 317 318 318 318 317 317 328 316 316 314 310 312 311 311 310 310 312 313 313 314 314 315 314 315 313 315 313 313 314 313 313 313 313 314 311 312 311 311 307 304 301
309 314 316 319 318 318 318 317 317 322 326 319 316 315 315 315 310 308 311 309 310 312 312 312 311 312 314 312 313 311 313 312 311 312 315 314 314 315 313 314 312 312 308 303 300
305 306 312 317 318 318 318 317 320 321 319 318 317 315 317 316 312 311 311 312 314 316 315 313 312 312 310 313 312 312 314 317 318 315 318 312 313 316 313 313 311 312 307 301 300
304 303 305 310 317 318 317 314 318 319 319 316 316 315 318 316 314 310 310 313 310 312 313 316 316 312 310 313 314 312 313 316 316 318 317 312 316 316 311 310 309 306 305 300 299
303 304 309 307 313 318 320 319 321 317 316 319 319 319 318 317 315 311 310 311 311 309 315 314 315 311 310 311 313 312 314 314 318 301 310 316 314 313 309 309 307 307 303 299 299
303 304 309 308 309 317 321 320 316 315 317 318 323 320 320 318 316 313 311 311 313 311 311 314 317 311 310 311 311 311 310 315 313 315 317 317 316 319 315 311 309 306 303 299 298
303 305 307 308 312 314 319 314 319 314 316 319 321 321 317 319 318 314 315 314 312 311 312 313 317 313 310 312 314 313 313 313 314 312 315 315 319 311 314 311 310 308 303 299 298
303 305 308 312 314 312 314 314 315 317 315 318 319 319 317 317 319 315 316 315 311 311 313 312 316 312 313 310 308 311 314 313 317 316 315 315 320 308 310 310 309 308 303 300 298
303 303 309 312 312 312 311 313 314 317 317 318 320 319 318 320 321 318 314 313 312 312 313 314 318 318 317 316 310 312 312 315 314 310 318 317 320 305 307 310 308 306 302 300 297
302 303 304 310 310 309 311 312 314 314 315 317 318 318 319 320 320 324 321 317 312 313 313 315 316 317 323 319 314 313 311 312 316 318 318 318 320 314 309 310 308 305 301 299 297
301 303 305 307 308 311 311 311 312 314 314 315 318 319 319 322 321 322 321 317 312 312 314 318 321 318 317 314 312 312 314 313 316 317 320 319 317 317 315 310 310 305 301 299 297
301 300 300 304 308 306 312 312 312 312 314 316 317 316 318 321 319 318 319 319 319 313 315 316 320 317 319 315 315 317 316 310 313 315 316 317 317 313 312 311 309 305 302 300 299
300 300 302 301 302 307 308 308 310 311 311 312 315 316 316 317 316 316 313 314 316 318 315 316 317 316 322 317 316 319 319 318 317 312 313 316 315 314 311 310 310 309 303 302 301

GFSSW_925_thetae_063.txt.gz
Theta_e
311 310 309 308 308 308 309 309 309 309 310 311 312 313 314 315 315 318 317 316 314 311 311 314 314 314 314 312 311 305 306 309 310 311 315 312 313 312 308 310 309 309 310 310 323
311 309 309 308 308 308 308 308 309 309 310 311 312 313 314 315 318 318 317 315 313 311 314 313 312 312 310 314 310 308 307 310 310 310 313 312 312 311 312 311 310 310 309 311 322
312 310 309 309 308 308 308 308 308 309 309 310 311 313 314 316 318 315 313 312 312 312 313 314 313 313 314 313 313 308 309 310 312 313 312 312 313 310 309 311 309 310 308 308 314
313 313 310 309 309 309 308 308 308 308 309 310 311 312 315 317 314 315 311 311 311 312 314 314 312 314 313 314 313 312 312 310 312 313 313 313 312 312 308 311 309 307 307 307 308
311 311 312 310 310 309 309 309 308 308 309 310 311 313 316 312 314 314 311 310 313 314 313 312 313 314 313 314 314 313 313 313 313 313 313 313 313 311 311 309 306 305 306 306 306
312 310 310 310 310 310 309 309 308 308 308 310 312 314 317 311 317 315 311 311 313 313 312 312 312 312 313 313 312 313 313 313 313 313 312 314 313 312 310 305 306 306 305 304 305
314 311 309 311 311 310 310 309 309 308 309 310 313 315 315 309 316 316 312 311 312 313 312 313 313 313 312 314 312 312 314 311 311 312 313 312 313 311 309 305 306 305 304 303 303
317 317 316 312 311 312 312 311 310 308 309 312 314 316 309 314 317 316 313 312 312 313 313 313 314 312 313 312 310 313 311 314 312 311 312 312 314 312 306 305 306 304 302 302 302
319 318 318 317 316 314 312 312 311 309 310 312 316 316 309 313 316 317 314 313 312 312 313 314 312 310 310 311 312 310 313 313 313 310 311 311 313 312 305 305 306 303 302 302 301
320 320 319 318 318 315 312 311 311 311 315 314 316 311 310 312 314 317 314 312 311 310 310 310 307 310 307 310 312 312 313 312 314 313 311 311 310 309 307 304 306 303 302 301 302
321 320 321 319 318 316 314 315 312 313 316 308 309 305 311 312 314 314 313 312 311 310 312 310 311 312 312 309 311 311 312 313 313 312 312 311 310 311 308 304 304 304 303 303 303
318 320 319 321 319 317 316 314 312 313 313 313 314 313 313 312 313 313 312 312 312 313 310 311 311 311 311 311 311 313 314 312 311 311 311 311 311 309 308 306 307 307 306 304 303
318 320 318 322 318 317 317 315 316 314 312 312 314 314 313 310 312 313 310 310 312 311 311 312 313 311 312 312 313 312 312 312 313 312 309 310 311 310 309 308 306 306 307 306 305
317 319 319 320 316 317 317 319 317 316 315 315 314 315 310 310 313 312 311 311 311 313 311 312 312 313 312 313 312 313 310 312 313 315 316 311 317 312 310 309 307 308 306 306 304
313 317 319 319 317 317 318 318 317 316 330 316 314 313 309 311 310 311 310 310 312 312 312 313 313 313 314 313 312 314 311 312 313 313 312 312 313 313 311 311 310 310 309 307 304
306 309 315 317 317 317 318 318 316 322 327 317 315 314 313 313 310 308 311 309 309 312 312 310 310 312 313 312 312 310 312 311 310 311 315 313 314 314 312 313 311 311 309 305 302
304 304 306 314 318 318 318 317 321 319 319 318 317 314 315 314 311 310 311 311 312 314 314 312 312 310 310 312 311 312 314 316 315 314 317 311 312 315 312 311 310 311 309 306 300
305 304 304 304 315 318 318 319 319 319 319 316 315 315 317 315 312 310 311 313 310 311 311 313 313 311 309 313 314 312 313 315 314 315 314 312 316 315 309 308 307 306 306 302 298
304 303 303 305 306 313 319 319 321 317 316 318 319 319 317 316 314 311 310 310 311 309 313 313 314 310 309 310 312 311 314 312 315 299 309 313 312 311 309 309 308 307 305 300 299
302 302 303 304 306 310 319 320 317 315 316 318 323 319 320 318 316 311 310 310 311 310 309 313 314 311 310 311 310 311 310 315 312 313 312 314 314 316 315 312 309 309 306 302 298
302 302 303 304 309 311 314 317 317 314 315 318 321 320 318 319 318 314 316 313 310 310 311 312 313 312 310 311 313 312 313 312 312 311 314 314 318 310 313 312 311 309 307 303 298
302 303 304 309 310 310 310 312 313 316 316 316 318 319 317 316 319 318 316 317 310 310 312 311 314 310 312 309 308 311 313 312 315 314 313 314 319 310 311 310 309 309 307 302 298
301 302 301 309 309 309 308 310 311 316 316 318 319 319 316 318 321 317 315 312 311 311 313 314 317 318 318 314 309 311 312 313 313 310 318 316 319 305 308 309 308 306 305 300 297
299 302 300 306 308 307 308 308 310 312 313 316 318 318 319 320 318 321 316 316 312 311 313 316 316 316 323 319 313 312 311 311 315 317 317 317 319 315 311 309 309 307 304 300 297
298 302 300 301 302 310 309 308 309 310 312 313 316 318 319 321 321 322 321 320 312 313 315 317 318 317 316 315 313 312 313 313 315 315 318 319 317 317 314 307 307 309 304 300 298
298 300 300 301 304 302 309 311 310 309 312 314 315 313 316 320 319 319 320 320 320 313 316 316 315 315 319 317 315 316 312 311 313 315 315 316 317 315 312 310 310 308 307 302 300
298 299 301 300 300 303 305 304 310 310 310 310 312 313 314 316 315 315 315 315 317 318 315 316 317 318 323 316 316 318 317 317 312 313 314 316 315 314 313 309 310 310 307 304 302

GFSSW_925_thetae_069.txt.gz
Theta_e
313 313 313 309 308 308 308 308 309 309 309 309 310 311 311 312 314 316 316 315 314 311 310 312 312 312 312 309 307 303 309 310 311 310 312 307 310 306 307 309 309 309 310 311 321
312 312 309 309 308 308 308 308 308 308 309 309 309 310 311 313 315 316 316 315 314 311 312 311 311 311 309 311 308 306 307 309 307 307 311 309 310 308 310 310 311 309 308 309 322
312 311 312 308 308 308 308 308 308 308 308 308 309 310 311 314 315 314 314 313 312 311 313 313 312 311 312 311 310 305 307 306 309 309 310 310 310 307 309 311 310 312 309 311 319
312 312 311 312 310 309 308 308 308 308 308 308 309 310 312 315 309 314 311 311 311 312 313 312 311 312 311 312 311 312 309 307 310 311 310 310 308 309 307 311 308 307 307 312 317
313 312 312 311 311 310 309 309 309 308 308 308 309 310 314 310 311 313 310 310 311 313 312 310 312 311 311 311 311 311 310 310 311 311 311 311 311 310 308 306 307 306 306 311 318
313 313 313 313 311 310 309 309 309 309 308 308 309 310 313 309 314 315 311 311 313 312 311 311 311 310 309 311 310 311 312 311 311 312 311 312 311 311 310 306 307 306 306 308 313
315 313 313 312 312 312 310 309 309 309 308 308 309 312 310 307 314 313 311 311 312 311 311 311 311 312 310 312 310 310 313 311 311 311 313 310 312 311 309 307 308 307 305 305 307
318 317 316 315 314 312 312 310 309 309 309 308 310 313 306 310 313 315 312 311 312 312 312 312 312 309 311 309 308 311 309 313 310 310 311 311 313 311 306 307 308 306 305 304 304
320 319 318 318 317 316 315 311 309 309 309 309 311 312 306 311 314 315 312 311 312 312 312 312 310 308 309 310 310 308 310 312 311 309 310 311 312 309 306 305 307 306 305 304 304
321 320 320 319 319 318 317 314 310 309 312 312 314 307 307 309 314 315 313 311 310 309 310 308 306 308 306 309 309 310 312 310 311 310 310 311 311 309 307 306 307 306 305 304 304
320 319 319 319 320 319 318 312 306 305 314 305 305 304 309 311 314 313 311 310 309 308 311 308 310 312 311 309 307 307 309 310 308 309 311 310 310 311 308 305 306 306 306 306 305
317 318 319 319 319 319 318 311 307 311 312 310 309 310 311 312 313 312 311 311 311 311 308 309 311 309 308 308 310 309 311 311 308 308 310 310 311 310 308 308 308 310 309 307 307
317 317 317 319 319 318 318 317 315 314 312 311 310 311 308 310 311 312 309 308 309 309 309 310 310 308 310 309 310 310 310 310 311 310 308 308 310 309 308 308 308 307 308 309 308
313 317 317 317 317 318 318 320 316 313 319 318 313 313 309 309 311 310 310 310 310 311 308 309 309 310 310 311 310 311 308 309 311 312 312 309 312 310 309 309 308 308 307 307 307
307 313 315 318 318 317 318 319 316 315 324 316 313 311 308 307 308 311 308 310 310 310 310 311 310 311 311 311 309 311 308 309 310 311 310 311 313 312 309 310 310 311 310 309 304
305 305 309 314 317 317 318 318 316 324 326 317 313 314 311 311 309 308 310 308 308 310 311 310 308 310 311 310 309 307 309 309 307 309 315 310 312 311 310 310 310 309 309 307 304
306 305 305 306 314 315 316 316 321 323 318 316 315 312 313 311 311 311 311 310 311 313 312 311 310 310 309 311 309 310 312 312 310 313 315 308 311 311 309 306 308 309 309 305 305
303 305 304 305 305 307 312 320 320 318 318 313 313 312 314 311 310 310 311 313 310 308 307 311 310 310 308 310 312 310 311 312 309 310 309 309 313 312 308 307 306 304 304 304 305
301 303 303 304 304 305 313 317 319 316 314 317 318 318 315 314 310 310 310 310 311 307 311 310 310 308 308 309 310 310 313 309 311 296 308 309 308 308 307 307 307 307 306 304 304
302 302 302 302 303 307 310 313 316 315 316 316 322 320 322 315 314 310 309 308 310 308 308 310 312 309 309 309 309 309 308 312 309 311 309 311 311 312 313 311 310 308 307 305 303
301 298 301 304 307 306 308 310 313 313 315 319 320 320 317 317 316 311 312 310 307 308 309 309 310 310 309 309 310 311 311 310 310 310 312 312 317 307 310 309 309 309 308 306 304
299 297 303 305 305 303 306 307 312 313 314 317 318 320 319 316 317 314 313 313 308 309 311 309 311 310 310 308 306 308 310 310 313 311 310 311 317 308 310 309 308 310 308 306 303
297 297 299 306 304 303 304 306 308 311 314 317 318 316 317 319 320 316 314 312 309 310 312 313 315 312 315 312 308 310 309 310 309 308 312 314 318 306 307 309 308 309 308 304 303
299 298 296 300 300 303 303 305 307 307 309 311 314 315 317 317 317 319 318 313 311 310 313 315 314 315 320 316 311 311 309 310 313 316 315 314 316 313 310 311 308 308 305 304 302
299 299 297 299 298 299 303 305 305 306 307 308 309 311 313 316 315 317 316 317 315 311 313 317 319 315 315 314 312 311 311 311 313 313 315 316 314 314 311 310 311 312 306 304 302
300 299 299 297 299 297 298 301 304 306 305 308 309 307 309 312 312 310 314 315 316 313 313 314 318 317 319 317 313 316 314 310 311 312 313 313 314 314 313 309 309 310 309 306 303
298 297 299 299 297 300 299 300 300 299 301 306 306 308 308 309 308 309 309 311 313 315 314 313 311 315 321 314 316 318 317 316 317 312 312 314 313 313 313 312 312 312 309 306 305

GFSSW_925_thetae_072.txt.gz
Theta_e
311 307 308 308 308 308 308 308 308 308 309 309 309 310 311 311 313 315 317 314 313 311 310 312 312 313 314 315 312 311 319 320 319 318 319 314 316 312 312 316 317 318 316 317 326
311 309 307 308 308 308 308 308 308 308 308 308 309 310 310 312 315 316 315 315 314 311 311 313 314 313 315 315 314 317 320 319 316 316 317 315 315 315 315 316 317 316 314 313 324
312 311 309 308 308 308 308 308 307 307 308 308 308 309 310 313 317 315 315 315 313 311 312 312 313 315 316 315 315 313 317 312 313 313 314 315 314 314 316 317 318 319 318 314 325
312 312 311 309 309 308 309 308 308 308 307 308 308 309 311 315 312 313 311 311 311 312 313 313 315 316 316 316 314 314 312 312 314 315 314 315 314 314 315 318 314 316 316 315 323
313 313 311 310 309 309 309 309 309 308 308 308 308 309 313 313 313 312 310 310 311 312 313 314 315 316 315 316 314 315 314 311 313 313 313 313 315 315 314 315 312 312 311 315 318
314 313 313 311 310 309 309 309 309 309 309 308 308 310 312 311 312 314 310 311 312 312 312 313 315 314 315 315 315 314 314 315 314 314 314 315 314 314 316 314 313 312 314 314 316
315 313 312 311 310 310 309 309 309 309 309 308 309 311 311 311 313 313 310 311 312 311 313 311 312 315 314 315 313 313 316 316 315 315 316 314 317 316 316 312 314 314 314 314 314
317 316 316 314 312 310 309 309 308 308 309 308 309 311 311 309 312 314 311 311 312 311 312 312 312 314 315 313 315 316 316 317 314 314 314 315 317 317 313 314 315 316 316 314 313
319 318 317 317 317 316 316 312 308 308 309 309 311 312 310 311 314 314 311 312 312 311 311 311 312 314 314 317 317 317 316 317 316 314 314 316 318 317 312 312 315 316 316 315 314
320 320 319 318 319 319 318 315 311 308 310 311 313 310 309 311 314 314 312 311 312 312 314 315 315 317 316 317 315 316 316 315 316 314 313 316 317 317 316 313 315 316 316 316 314
317 320 320 320 320 320 319 312 310 310 313 310 308 307 309 311 314 313 310 311 312 314 316 313 317 317 316 317 313 313 314 314 314 312 315 316 316 316 316 315 315 316 316 316 316
317 319 319 319 320 319 319 313 308 312 313 310 309 309 310 312 314 314 310 315 315 316 313 314 315 315 313 314 314 314 315 315 315 312 313 315 316 316 316 316 316 316 316 317 317
316 317 318 318 319 318 318 318 314 314 316 315 311 311 309 312 313 315 311 312 314 314 314 314 314 313 313 313 314 315 316 315 314 314 312 314 315 316 315 314 314 314 315 315 316
313 316 317 317 317 318 318 319 316 313 325 323 315 314 310 312 312 311 311 313 312 314 313 314 313 312 313 313 313 314 313 314 314 315 315 313 314 315 315 315 314 315 316 316 316
306 312 316 316 317 318 317 318 316 315 324 318 314 311 309 310 311 312 308 312 315 313 313 313 313 313 313 313 313 314 312 313 314 316 316 315 315 314 313 315 315 316 318 317 316
305 305 312 315 316 315 318 318 316 323 323 319 315 315 311 311 311 310 311 310 310 313 312 312 310 312 314 310 312 311 313 313 313 315 317 315 315 314 316 315 316 315 315 313 312
305 306 305 306 313 313 316 317 318 323 318 319 317 314 313 312 312 313 314 314 314 314 315 313 313 311 311 313 311 313 316 315 317 320 318 314 316 315 315 314 315 316 317 312 311
302 303 304 304 305 308 312 320 321 319 321 315 315 314 317 313 312 313 314 315 313 312 312 314 314 313 312 314 315 314 315 318 325 317 314 312 316 316 315 314 314 313 313 311 310
299 301 302 304 304 305 313 316 321 318 317 318 317 319 317 314 313 313 315 315 314 312 312 313 313 310 309 311 313 313 315 313 315 308 316 313 315 315 314 314 314 313 313 313 312
302 301 301 303 304 308 313 315 314 315 317 317 323 321 321 318 316 314 314 314 314 313 312 313 314 311 310 310 310 312 313 315 315 323 321 315 315 316 317 316 315 314 313 314 313
301 302 300 303 307 309 311 312 313 314 316 318 320 321 321 319 318 315 316 313 311 312 312 313 313 313 311 313 314 313 314 313 314 317 324 320 317 317 318 316 315 315 313 313 312
300 301 302 305 307 308 309 308 311 313 314 317 317 317 318 318 318 318 320 318 310 311 313 313 315 318 315 310 309 312 314 314 316 317 315 316 319 312 314 313 313 313 312 311 309
301 300 298 305 305 306 306 307 309 313 314 316 317 316 317 317 319 316 317 314 311 312 314 313 317 322 321 315 310 312 312 313 314 316 322 323 321 310 310 313 312 313 313 311 309
300 301 300 301 302 303 303 306 307 308 309 312 314 316 316 317 315 316 315 315 312 312 313 314 316 321 324 320 316 315 314 313 315 319 318 319 318 318 314 314 314 314 313 312 311
300 300 300 300 301 303 304 304 305 305 308 308 309 310 312 313 313 315 315 317 315 315 313 312 315 316 318 319 314 315 316 314 315 316 318 319 318 317 316 315 315 315 314 312 311
301 302 298 299 299 300 302 302 305 305 306 308 308 308 309 311 311 311 312 314 315 315 315 312 314 312 315 317 317 318 317 314 315 315 316 316 317 316 316 314 313 314 315 314 314
298 297 299 299 300 300 299 300 299 302 302 303 307 307 308 308 307 306 308 310 311 313 313 313 314 316 316 315 318 319 319 320 317 315 315 317 317 316 316 315 314 314 314 314 314

GFSSW_925_thetae_075.txt.gz
Theta_e
313 309 308 308 308 308 308 308 308 308 308 309 309 309 310 311 312 317 318 316 315 311 311 313 314 316 316 319 317 317 320 320 320 321 320 319 319 317 318 319 318 321 320 323 325
313 311 309 308 308 308 308 308 308 308 308 308 308 309 310 311 316 317 316 314 313 311 313 314 315 316 316 319 319 319 321 320 320 319 319 318 319 319 317 318 318 319 318 319 329
313 312 310 309 308 308 308 308 308 308 307 308 308 309 310 312 318 317 315 315 314 312 313 313 314 316 316 317 318 319 320 319 317 316 317 318 317 318 318 319 319 319 319 318 327
313 313 312 309 309 308 308 308 308 308 308 308 308 309 310 318 314 315 312 312 312 312 314 314 315 316 316 316 316 315 315 315 316 315 316 317 317 317 317 319 318 318 319 318 325
312 313 312 311 309 309 309 309 309 309 308 308 308 309 314 315 314 312 310 310 311 313 314 315 315 316 316 316 316 315 315 313 315 315 316 315 317 317 318 318 317 316 316 319 320
313 313 313 312 310 309 309 309 309 309 309 308 308 309 315 312 311 313 310 311 313 313 314 315 315 316 316 316 316 317 316 316 316 316 315 315 316 315 317 318 318 317 316 316 318
314 313 313 312 311 310 309 309 309 309 309 309 308 311 313 313 315 314 310 312 312 313 315 314 315 316 317 317 316 316 317 317 316 316 317 316 317 316 316 316 316 317 316 316 317
317 315 314 313 313 312 309 309 309 308 308 309 309 315 313 309 314 313 311 312 312 313 314 314 315 317 318 316 317 316 317 316 317 317 316 317 316 318 317 318 317 317 317 317 317
319 318 317 316 316 315 315 311 309 308 308 309 313 314 312 310 314 314 313 313 313 313 312 313 316 317 317 317 317 318 315 317 317 316 317 317 319 318 316 316 317 317 318 318 318
320 319 318 319 318 318 317 316 313 308 309 309 313 312 311 311 315 314 312 313 314 314 315 315 315 315 315 316 315 316 317 316 317 317 316 317 318 317 317 317 317 317 317 317 318
318 318 320 319 319 319 319 314 314 313 313 311 311 310 310 313 314 315 312 313 314 315 315 316 315 315 316 315 315 315 315 315 315 315 315 316 316 316 316 316 317 317 317 317 317
317 317 319 319 319 319 319 317 312 314 313 311 310 310 311 313 315 315 312 315 316 316 317 317 316 316 316 317 317 316 315 315 315 316 314 316 316 316 316 317 317 317 317 318 317
316 316 317 318 319 318 320 321 313 314 316 316 312 309 311 313 313 315 314 315 316 316 317 316 315 315 316 315 315 315 315 315 315 316 315 316 317 317 317 317 317 317 317 317 317
313 314 316 318 317 318 319 319 317 314 320 318 317 315 311 312 311 314 313 314 314 315 316 316 315 314 315 315 315 314 314 315 315 315 314 315 316 315 315 316 317 317 317 317 318
306 312 314 317 317 318 317 318 317 316 320 317 316 311 312 310 312 314 312 313 314 314 314 314 315 315 314 314 314 315 315 315 315 317 317 316 316 315 316 316 316 316 319 319 319
306 305 310 314 316 315 317 317 317 324 325 321 316 316 312 311 312 312 313 312 313 315 314 315 312 314 314 313 314 314 315 316 316 316 317 315 316 315 316 317 317 317 317 317 316
303 304 305 308 314 313 316 317 321 322 319 320 319 316 315 313 313 314 314 314 314 313 313 314 314 313 313 314 313 315 315 315 317 320 318 315 317 316 316 316 316 316 317 317 315
301 302 303 304 305 309 313 320 320 319 322 318 318 317 317 315 314 314 315 315 313 313 314 314 315 314 313 315 315 316 315 319 326 320 318 314 316 315 316 316 316 316 317 317 315
298 302 302 303 304 306 313 315 320 320 320 319 318 320 319 315 315 314 315 315 315 314 314 314 315 313 313 314 314 315 317 316 318 318 317 315 316 316 316 315 315 316 316 316 317
303 302 302 303 305 309 313 313 314 315 318 318 322 320 322 319 317 315 316 316 315 315 314 315 317 313 311 312 313 314 314 315 315 325 322 316 317 316 318 317 317 316 316 316 316
302 303 302 302 308 310 313 312 314 314 316 319 321 323 323 322 318 317 318 315 314 315 315 314 315 315 312 313 314 313 314 314 315 317 321 320 317 317 319 318 318 318 316 315 315
302 302 302 306 306 308 310 309 310 313 314 316 317 317 317 316 320 321 320 318 313 313 315 315 315 319 316 314 313 313 314 314 317 318 316 317 318 318 318 316 316 316 315 314 312
302 302 300 305 305 307 306 307 308 311 315 315 317 316 315 316 317 310 317 313 313 314 316 315 317 321 322 316 313 313 314 314 315 317 324 321 320 315 314 316 316 316 316 315 312
301 301 301 303 305 305 303 304 306 308 311 313 312 314 316 316 315 316 315 314 314 314 313 311 313 320 324 322 320 316 315 315 316 319 318 319 318 317 317 317 317 316 316 316 314
300 301 302 303 303 304 303 302 303 305 307 308 310 312 314 315 316 318 314 314 316 314 314 312 316 315 314 315 315 315 319 318 316 316 318 318 318 317 317 317 317 317 317 316 315
300 301 301 301 301 303 303 303 304 303 305 306 307 308 308 310 310 311 310 312 315 316 316 312 316 315 314 313 313 314 315 315 317 319 316 317 318 316 316 317 317 317 316 315 315
298 298 301 300 300 301 304 303 302 304 304 304 306 305 306 308 309 308 308 309 311 312 314 312 311 315 314 314 315 316 315 315 316 318 317 318 317 316 317 317 317 317 316 316 315